Regional Weather Roundup
Issued by NWS

Home | Current Version | Previous Version | Text Only | Print | Product List | Glossary Off
Versions: 1 2 3 4 5 6 7 8 9 10 11 12 13 14 15 16 17 18 19 20 21 22 23 24 25 26 27 28 29 30 31 32 33 34 35 36 37 38 39 40 41 42 43 44 45 46 47 48 49 50

000
ASUS43 KBIS 242031
RWRND
NORTH DAKOTA REGIONAL WEATHER ROUNDUP
NATIONAL WEATHER SERVICE EASTERN NORTH DAKOTA/GRAND FORKS ND
300 PM CDT TUE APR 24 2018

  NOTE: "FAIR" INDICATES FEW OR NO CLOUDS BELOW 12,000 FEET WITH NO
  SIGNIFICANT WEATHER AND/OR OBSTRUCTIONS TO VISIBILITY.

NDZ001>003-009>011-017-242100-
...NORTHWEST NORTH DAKOTA...

CITY           SKY/WX    TMP DP  RH WIND       PRES   REMARKS
WILLISTON      FAIR      59  24  26 MISG      30.41F
MINOT          FAIR      59  19  21 NW9G21    30.40F
MINOT AFB      FAIR      57  20  23 NE3       30.38F
$$

NDZ018>021-031>035-040>046-242100-
...SOUTHWEST NORTH DAKOTA...

CITY           SKY/WX    TMP DP  RH WIND       PRES   REMARKS
BISMARCK       FAIR      55  23  28 N12G21    30.42F
DICKINSON      FAIR      54  18  24 NW14      30.42F
GARRISON         N/A     55  22  27 VRB6      30.41F
HETTINGER      FAIR      48  26  42 N10       30.46F
$$

NDZ004>008-012>016-024-026-027-054-242100-
...NORTHEAST NORTH DAKOTA...

CITY           SKY/WX    TMP DP  RH WIND       PRES   REMARKS
GRAND FORKS    FAIR      51  31  46 N24G32    30.37F
GRAND FORKS AF FAIR      53  26  35 N21G28    30.38S
DEVILS LAKE    FAIR      52  25  35 N18       30.40F
$$

NDZ022-023-025-028>030-036>039-047>053-242100-
...SOUTHEAST NORTH DAKOTA...

CITY           SKY/WX    TMP DP  RH WIND       PRES   REMARKS
JAMESTOWN      FAIR      54  28  36 N13G26    30.37F
FARGO          FAIR      54  33  45 N20G31    30.35F
WAHPETON       FAIR      52  32  46 N18G30    30.33S
$$




USA.gov is the U.S. government's official web portal to all federal, state and local government web resources and services.